Temp
23 22 20 20 20 21 22 22 21 21 21 21 21 21 21 21 21 21 21 21 21 21 22 22 22 22 21 22 21 21 21 21 21 20 20 20 20 20 20 21 23 22 20
24 23 21 21 21 21 21 20 20 21 21 21 20 21 21 21 21 21 21 21 21 21 21 21 21 21 21 21 21 21 21 21 21 21 21 21 20 20 20 21 21 20 20
24 23 22 21 21 20 21 21 21 22 22 22 21 21 20 21 20 20 20 20 20 21 21 21 21 21 21 21 21 21 21 21 22 23 24 24 22 20 20 20 20 20 20
25 25 23 21 21 20 21 20 21 21 22 22 21 21 20 20 20 20 20 21 21 21 21 21 21 21 21 21 21 21 21 21 22 23 25 25 23 20 20 20 20 20 20
26 26 23 21 21 20 21 21 21 21 21 21 21 20 20 20 20 21 21 21 21 21 21 21 21 21 21 21 21 20 20 21 22 24 24 24 23 20 20 20 21 21 21
26 26 22 21 21 21 21 21 21 21 21 21 20 21 20 20 20 21 21 21 20 21 21 21 21 22 22 21 20 20 20 22 24 24 23 22 22 20 20 20 20 20 20
27 25 23 21 21 21 21 22 21 21 20 20 21 20 20 20 21 20 20 21 20 20 20 21 21 22 21 21 20 20 20 22 24 23 23 23 21 20 20 20 20 20 19
27 26 23 21 21 21 21 21 21 21 21 20 20 21 20 20 20 21 21 21 21 20 20 21 21 21 21 21 20 20 21 23 24 24 23 22 20 20 20 20 19 20 20
27 26 24 23 22 21 21 21 21 21 20 20 20 20 20 20 20 21 21 21 21 21 22 22 22 22 21 20 21 21 22 23 24 24 24 22 20 20 20 20 20 19 19
26 26 25 25 24 24 22 21 21 21 20 20 20 21 22 21 22 21 21 21 21 22 22 22 22 22 22 21 22 22 23 23 24 24 24 21 20 20 20 19 19 19 20
26 26 25 25 24 22 22 21 21 21 21 22 22 22 23 25 24 23 22 21 21 21 21 22 22 22 22 21 22 22 24 25 25 25 23 20 20 20 20 19 20 20 19
26 26 26 26 25 24 24 23 24 23 25 24 23 23 24 24 23 23 22 21 21 21 22 22 23 23 24 24 24 24 25 24 25 25 22 20 20 20 20 19 19 19 19
26 27 26 25 24 25 23 25 25 24 24 23 23 23 23 24 24 24 24 24 23 23 25 24 24 25 24 25 25 25 24 25 25 25 21 20 20 19 20 19 20 20 19
26 26 26 25 24 24 25 25 25 25 25 24 23 23 23 24 24 24 24 24 24 25 24 25 24 23 23 24 25 25 25 26 25 25 22 20 20 20 19 20 20 20 20
26 25 25 24 23 23 24 25 25 24 25 24 24 23 24 24 24 24 23 24 24 25 24 24 24 24 24 25 25 25 25 24 24 25 24 21 21 20 20 19 19 20 20
25 24 25 24 23 23 24 23 24 25 24 25 25 23 23 24 23 24 24 24 24 25 25 25 24 25 26 25 24 24 25 24 24 24 25 22 22 21 21 20 20 20 20
25 25 25 24 23 23 23 23 24 24 25 25 25 23 23 24 23 23 24 24 25 24 23 24 24 25 26 26 25 25 25 24 24 24 25 25 23 22 22 21 21 21 21
26 25 24 25 24 23 23 23 24 25 25 25 25 24 23 23 23 23 24 24 24 24 25 25 26 26 26 26 26 26 25 25 24 24 25 25 24 25 23 23 22 21 21
26 24 24 24 24 23 23 24 24 24 25 25 25 25 23 23 23 23 24 24 24 25 25 26 26 26 26 27 27 26 26 26 26 26 25 25 25 25 25 23 23 22 22
26 25 24 24 24 23 23 23 24 25 25 25 25 25 23 24 23 23 24 23 25 26 26 26 25 26 27 27 28 27 27 27 27 27 27 27 26 25 25 24 24 24 23
26 25 24 24 23 23 23 24 25 25 25 25 25 24 23 24 23 23 24 24 25 26 25 25 25 25 27 26 28 28 28 27 27 27 27 27 27 26 26 26 25 25 25
26 25 24 24 23 23 24 25 25 26 26 26 25 24 24 23 23 23 24 24 25 25 24 25 25 27 27 26 28 28 30 29 29 28 28 27 27 27 27 26 25 25 25
27 25 24 24 23 23 25 24 23 24 24 24 25 25 24 23 23 23 23 25 24 25 26 25 25 26 28 26 25 28 30 30 30 29 28 28 27 28 27 27 26 26 25
28 26 25 24 23 23 23 24 24 26 27 27 26 26 25 23 23 23 23 23 23 25 25 25 25 26 26 28 27 27 26 26 30 30 29 28 28 29 27 28 28 27 26
28 27 26 24 24 24 23 24 24 25 27 26 27 25 25 23 24 24 23 23 23 25 24 25 24 24 26 28 28 28 27 27 26 30 31 30 29 29 29 28 28 28 27
28 28 27 25 23 23 23 23 24 25 26 27 26 24 24 24 24 24 23 23 23 24 24 24 24 24 26 26 27 27 28 28 29 30 31 30 30 29 29 29 29 28 28
Height
833 835 837 839 841 842 843 843 844 844 844 845 846 846 846 846 846 846 847 847 847 848 848 848 850 849 850 850 850 851 851 851 851 852 853 853 853 854 853 853 853 854 855
831 836 838 841 842 843 845 846 846 846 846 847 848 848 848 848 847 847 848 849 850 850 850 851 852 852 852 853 854 854 854 854 854 854 854 856 857 857 856 856 856 857 858
832 837 840 842 844 845 846 847 848 849 849 849 849 849 849 849 849 850 850 851 852 852 853 853 853 855 855 855 856 856 856 857 857 856 857 859 861 861 860 860 860 860 860
833 837 841 843 845 847 848 849 850 850 850 851 851 851 851 851 852 852 853 853 854 854 855 856 856 858 858 858 858 859 860 860 860 859 860 861 864 865 864 863 863 863 863
833 837 842 844 847 849 850 851 851 852 853 853 853 854 854 855 854 855 855 854 856 857 857 858 859 859 860 860 861 862 863 863 863 863 864 865 866 867 867 867 865 865 865
835 838 843 845 848 849 851 852 853 853 855 854 855 856 857 856 856 856 857 857 858 859 860 860 861 862 862 863 864 865 865 865 866 867 868 869 870 870 870 869 869 868 868
835 840 845 846 849 850 852 853 854 855 857 857 857 858 858 858 858 858 858 859 860 861 862 863 863 865 866 866 867 867 868 868 869 869 870 872 873 873 873 872 872 871 870
836 840 845 847 850 852 853 854 856 857 858 859 859 860 860 860 860 860 860 861 861 863 864 865 865 866 867 868 869 869 870 870 871 872 873 875 876 875 875 875 874 873 873
838 841 846 849 851 853 854 856 857 859 860 861 861 862 862 862 862 863 863 863 864 866 867 867 868 870 870 870 870 871 872 872 874 874 874 877 878 878 877 877 876 875 875
840 843 846 849 852 853 856 857 859 860 861 863 864 864 864 864 864 865 865 866 867 868 870 871 871 872 872 872 872 873 874 874 877 875 877 880 880 880 880 879 879 878 878
841 844 848 849 853 854 857 859 860 862 864 864 865 866 865 866 867 868 867 869 869 871 872 873 874 873 874 875 875 875 874 876 876 877 880 881 882 882 882 882 880 880 880
841 844 847 849 853 855 857 859 861 863 864 865 867 868 867 868 868 870 871 871 872 872 873 875 876 875 875 875 876 876 877 879 878 878 883 883 884 884 884 883 883 882 882
841 844 848 851 854 856 858 860 862 863 866 868 869 869 870 870 871 872 873 874 874 875 875 876 876 877 878 877 877 878 880 879 880 880 883 884 885 885 886 885 884 883 883
842 846 849 852 855 857 859 861 863 864 866 868 870 871 871 871 872 873 874 876 876 876 877 878 878 880 880 880 880 880 881 880 880 881 884 885 886 886 886 886 885 884 884
843 847 849 853 856 859 861 862 864 866 866 869 871 871 871 872 874 875 876 876 877 878 878 879 879 880 881 881 881 882 883 883 883 883 884 886 886 886 886 886 885 885 884
844 848 850 854 857 860 862 864 866 867 868 869 871 872 873 873 874 876 877 877 878 879 880 880 881 880 881 882 883 884 884 885 885 885 885 886 886 886 886 886 886 885 884
844 848 851 854 857 860 863 865 867 868 869 870 871 873 874 874 875 876 877 878 879 880 881 882 882 882 881 882 884 885 885 886 886 887 886 886 886 886 886 885 885 885 884
842 847 851 854 857 860 863 866 867 868 869 869 871 873 874 875 876 877 877 878 879 880 881 881 881 881 882 882 884 884 886 886 887 887 887 886 887 885 885 886 885 885 884
841 846 851 854 857 860 863 866 868 869 870 870 871 873 874 876 878 877 878 879 880 880 881 881 882 882 882 882 882 885 885 885 885 885 887 887 887 887 886 886 886 885 884
841 845 850 854 857 860 863 866 867 869 870 870 871 872 874 875 878 879 879 880 880 880 881 881 883 883 882 883 880 883 884 884 885 884 884 884 885 886 886 887 886 885 885
839 844 848 852 856 859 861 864 866 867 869 870 871 873 874 875 876 879 879 880 881 881 882 884 884 885 884 885 881 881 882 883 883 883 883 883 884 884 885 885 885 886 885
836 841 846 851 855 858 860 863 865 866 867 869 871 872 874 875 876 877 879 880 881 882 883 884 884 883 884 885 882 880 877 879 879 880 882 883 884 883 884 884 885 885 885
833 839 843 849 853 857 859 862 865 867 868 869 871 872 874 874 875 877 879 880 882 881 883 884 885 884 882 886 886 882 876 874 875 880 881 882 883 883 883 884 884 884 884
830 836 842 847 852 856 859 861 863 863 864 865 868 870 873 875 876 876 878 880 881 882 883 885 885 885 884 884 887 887 887 886 875 875 880 882 882 881 883 883 883 883 884
827 833 840 846 850 854 857 859 862 863 863 866 866 870 872 875 876 877 878 879 880 881 883 885 886 886 887 885 885 886 886 885 885 876 875 878 881 881 882 883 883 883 883
822 828 835 842 846 851 855 857 860 861 863 863 866 870 872 874 875 876 877 878 879 881 882 884 886 887 887 887 887 887 885 883 880 878 877 879 878 881 882 882 883 883 882
Wind_Speed
16 15 16 15 15 15 15 14 14 14 13 12 12 11 10 10 9 9 11 12 11 11 13 13 14 14 15 14 15 16 18 18 19 19 20 19 19 17 16 15 19 18 18
21 17 17 16 15 15 15 13 14 14 14 13 13 12 13 12 10 10 11 11 12 11 11 13 13 14 13 14 14 17 17 19 19 18 20 19 17 17 18 19 19 17 17
21 18 17 16 15 15 16 13 15 14 14 12 13 13 13 12 12 12 10 10 11 11 12 12 13 13 14 14 15 16 16 16 20 19 15 17 16 16 16 16 17 17 17
22 19 17 16 14 14 15 13 14 13 14 13 13 12 13 12 13 13 13 12 11 11 12 12 13 13 13 15 17 15 15 16 14 8 15 17 15 16 16 16 17 17 17
20 19 17 16 15 13 14 12 13 12 14 12 13 13 13 13 13 13 13 13 13 12 12 12 12 13 15 14 15 15 15 15 16 16 16 15 15 14 14 14 15 15 16
20 17 18 16 14 13 13 12 13 12 12 13 13 13 13 13 13 13 13 13 13 12 12 12 13 13 13 15 15 14 15 14 13 15 14 14 14 13 14 15 15 15 15
19 17 15 15 13 12 11 11 11 12 11 13 13 12 13 13 13 12 14 13 14 14 13 12 12 14 15 15 14 14 15 13 14 14 15 14 13 14 14 13 14 14 14
19 18 14 14 12 11 11 11 10 11 11 12 14 13 14 14 14 14 14 14 14 14 13 14 15 16 17 16 15 15 15 11 14 13 14 13 13 13 13 13 13 14 14
17 16 14 12 10 10 10 11 10 11 12 13 13 14 14 14 15 15 15 15 14 14 16 18 16 15 15 15 14 14 16 15 13 11 15 12 11 12 12 12 13 13 12
15 15 14 12 11 10 9 10 11 11 12 13 12 13 15 16 16 15 16 15 14 16 16 18 17 15 15 15 15 15 17 14 12 11 12 10 11 11 12 12 11 11 11
15 13 12 13 11 9 10 11 11 11 13 14 12 13 11 13 13 14 14 14 13 14 15 15 15 14 15 15 14 14 11 10 10 10 11 9 10 10 10 11 10 11 11
16 14 13 12 12 11 11 11 10 10 10 11 11 11 12 11 12 13 12 12 12 13 14 13 13 13 10 9 9 11 10 10 10 10 9 10 9 8 9 9 9 9 10
17 14 13 12 12 11 11 11 10 11 11 12 12 11 11 12 11 11 11 10 10 10 10 9 9 10 9 10 10 10 10 9 9 10 8 9 8 7 8 7 7 7 8
17 14 13 12 12 10 10 9 11 11 12 12 12 11 11 12 12 10 10 9 8 9 8 8 8 8 8 9 9 9 9 8 9 9 7 6 5 6 6 5 5 6 6
16 14 14 13 12 10 10 10 10 11 11 12 11 10 10 10 10 9 8 7 6 7 8 9 9 8 9 10 10 9 9 9 8 7 7 5 4 5 5 4 4 4 5
16 16 15 14 12 11 9 10 10 10 11 10 9 8 7 8 8 7 8 7 6 7 8 8 9 8 9 10 10 9 8 8 8 6 7 5 5 4 3 3 3 3 3
17 16 16 15 13 13 11 10 10 9 9 9 8 7 6 5 5 6 6 6 6 5 5 6 7 7 8 8 8 7 7 6 7 7 5 5 3 6 4 3 3 3 3
17 17 16 15 15 14 12 11 9 8 8 7 6 6 5 3 5 5 6 7 5 6 6 5 6 7 7 7 7 7 8 7 6 6 5 4 4 4 2 6 3 4 4
18 18 17 15 15 14 13 12 9 8 7 6 6 5 3 2 6 6 6 5 5 6 5 6 6 5 7 7 9 6 6 5 4 5 3 3 4 4 3 4 7 5 6
17 17 17 16 15 15 13 11 10 9 8 6 5 4 3 3 5 6 8 6 7 6 7 7 6 5 5 4 5 6 3 3 2 2 2 2 3 2 2 3 3 3 7
17 18 18 18 17 17 16 15 12 11 8 7 6 4 3 4 2 7 7 8 6 6 6 6 7 5 6 4 4 4 3 3 2 0 0 1 2 1 1 2 2 2 2
19 20 19 19 18 18 17 15 12 9 8 7 7 7 5 5 5 5 6 8 7 7 6 6 3 6 4 2 4 2 2 8 5 3 2 1 1 1 1 1 1 1 1
20 20 20 19 18 18 16 15 11 9 6 7 8 8 7 6 5 8 8 8 7 6 8 5 4 1 6 2 2 7 1 5 4 4 4 4 3 2 2 2 1 0 1
22 20 19 19 18 18 17 15 13 12 10 9 9 9 8 7 6 8 9 8 6 7 6 6 4 1 3 7 2 3 4 4 4 7 7 6 4 3 3 2 3 2 0
23 21 20 18 19 18 18 16 15 13 11 8 8 8 8 8 6 7 10 9 7 8 7 6 5 2 4 2 1 1 2 2 3 5 5 8 7 5 4 3 2 2 1
25 23 21 21 21 20 19 19 17 13 12 10 11 9 9 10 9 9 8 10 10 7 8 7 6 4 3 2 2 1 2 3 6 3 6 4 5 6 5 4 3 2 3
Wind_Direction
149 144 136 128 126 128 124 122 118 117 113 107 103 101 100 98 91 87 90 85 90 90 97 94 93 94 90 90 90 92 93 93 93 91 89 87 88 85 83 82 86 84 80
143 142 135 134 130 128 121 118 115 108 103 101 104 98 97 88 84 85 98 92 89 93 94 94 96 92 94 91 91 95 94 95 96 98 93 86 82 82 81 85 87 85 81
143 142 139 138 132 128 125 119 116 109 107 101 95 86 94 91 85 93 97 95 97 92 95 98 96 97 95 93 95 96 95 103 97 98 98 84 83 82 86 84 83 84 81
142 143 143 145 136 130 122 119 118 114 110 103 97 95 93 93 94 87 88 100 102 103 100 96 101 99 96 99 98 97 101 100 82 80 87 88 88 88 86 87 86 81 76
141 142 145 143 139 129 122 118 117 105 107 102 98 97 100 98 95 89 91 93 101 101 101 102 100 98 101 99 99 100 100 93 86 88 91 87 89 90 83 78 79 88 88
141 139 149 143 139 131 126 121 113 111 105 103 102 99 96 96 99 96 91 91 92 101 100 99 96 103 110 100 101 105 102 91 87 88 89 85 93 89 86 78 83 79 74
142 139 140 145 142 133 123 119 117 112 103 102 99 100 97 95 95 95 98 95 91 96 92 89 93 106 120 109 105 105 98 88 91 90 88 86 89 85 85 84 83 78 75
144 141 138 140 137 134 131 126 119 111 108 103 101 97 99 97 94 97 98 99 98 95 90 90 103 101 103 105 102 101 99 94 89 86 88 87 88 89 88 86 85 79 74
146 138 142 142 143 136 132 125 119 114 108 109 104 101 100 97 94 98 101 103 101 94 88 92 95 95 97 98 101 101 102 97 90 87 96 83 90 86 83 88 75 77 77
151 146 147 146 147 143 135 132 124 119 114 108 109 109 104 96 92 101 99 103 101 100 94 91 91 92 90 93 93 96 95 92 89 92 78 90 88 84 83 81 76 77 68
156 154 153 148 148 136 131 132 121 109 121 114 98 104 105 98 94 95 106 101 97 91 92 90 89 92 92 86 84 94 88 90 90 84 87 91 89 79 81 75 74 67 68
161 161 154 148 147 143 137 136 128 131 120 118 114 109 107 103 94 104 104 106 105 98 93 92 88 89 105 103 85 77 94 97 93 91 94 81 77 84 77 72 67 66 60
162 158 157 153 153 149 140 140 135 130 127 120 118 115 113 109 104 105 105 106 102 101 101 84 80 86 84 79 76 82 94 98 98 90 93 84 77 79 74 71 62 65 58
163 165 162 157 157 153 149 145 139 130 131 126 122 118 117 112 107 106 108 109 102 98 92 85 88 85 84 82 78 80 88 90 90 92 99 106 93 73 80 77 56 63 58
168 169 165 164 162 156 156 143 140 134 133 125 123 119 115 114 111 112 112 111 101 100 95 93 84 91 95 91 86 83 85 86 88 90 93 107 109 87 74 73 56 54 52
173 173 168 170 167 161 160 154 148 142 133 133 129 123 112 116 117 117 117 114 115 110 101 96 88 91 94 101 90 83 82 89 88 89 89 93 69 86 97 76 54 43 41
176 174 174 174 171 165 164 162 158 152 147 141 134 129 126 126 121 128 128 120 117 129 118 104 98 103 106 109 93 87 94 94 95 91 85 82 104 55 54 62 41 23 15
176 174 177 178 174 170 168 171 170 164 165 154 148 147 137 100 126 134 137 130 126 124 127 117 116 106 110 110 95 91 95 99 96 93 80 76 81 89 48 26 24 16 13
180 176 179 181 176 173 173 176 176 174 177 164 161 162 162 134 132 141 153 146 146 126 120 129 124 123 121 111 129 116 109 102 105 95 79 71 68 61 57 353 17 20 7
183 181 182 184 180 174 175 177 182 180 184 179 173 162 165 165 132 135 149 158 156 135 121 113 124 122 99 93 76 92 100 115 105 91 99 111 76 61 61 36 359 347 2
185 184 185 185 184 180 177 183 183 185 190 195 184 172 160 176 163 140 160 163 161 152 114 127 137 135 127 112 196 149 133 180 192 260 26 88 85 101 38 23 34 36 8
183 186 186 191 190 189 184 187 193 200 199 204 190 179 175 170 177 157 163 165 172 159 145 132 146 145 115 93 35 234 99 149 114 65 92 135 87 78 72 57 2 355 10
184 186 188 190 191 192 190 187 198 196 205 194 189 180 185 187 170 171 166 164 166 183 166 162 145 225 137 152 24 347 272 58 175 104 117 117 108 101 83 97 96 91 277
190 191 190 189 193 195 195 198 205 204 209 199 192 183 172 187 167 178 175 176 187 194 168 174 177 156 230 150 164 45 12 1 348 126 104 106 138 138 95 127 113 116 327
193 195 194 194 195 200 202 207 206 217 209 192 199 174 173 183 187 181 189 186 182 178 180 175 185 189 182 175 317 113 49 92 89 322 108 122 120 106 104 124 103 92 57
194 199 197 197 200 201 206 209 211 217 218 207 199 175 194 187 188 203 195 193 190 180 196 196 193 202 195 195 259 311 7 319 57 74 115 111 95 108 102 106 97 65 30